#timestamp,LO_Frequency,Hit 
1505610015.5,286047003.3,N
1505610035.3,286047002.7,N
1505610055.1,286047008.8,P
1505610075.9,286047007.3,P
1505610095.7,286047001.8,N
1505610115.5,286047002.4,N
1505610135.4,286047004.0,N
1505610155.2,286047003.5,N
1505610175.0,286047002.1,N
1505610175.9,286047002.1,N
1505610195.8,286047000.6,N
1505610215.6,286046996.6,N
1505610235.4,286046997.1,N
1505610255.3,286047001.2,N
1505610275.1,286046999.5,N
1505610276.0,286046999.5,N
1505610295.8,286046998.0,N
1505610315.7,286046997.5,N
1505610335.5,286046998.8,N
1505610355.3,286046998.1,N
1505610375.1,286046998.3,N
1505610395.9,286046999.2,N
1505610415.7,286046998.9,N
1505610435.5,286046996.5,N
1505610455.4,286046996.6,N
1505610475.2,286047000.8,N
1505610495.0,286047002.3,N
1505610495.9,286047002.3,N
1505610515.8,286047007.5,N
1505610535.6,286047003.7,N
1505610555.4,286047002.7,N
1505610575.3,286047001.1,N
1505610595.1,286047001.2,N
1505610596.0,286047001.2,N
1505610615.8,286047000.9,N
1505610635.7,286047000.8,N
1505610655.5,286047000.7,N
1505610675.3,286046995.6,N
1505610695.1,286046995.4,N
1505610715.9,286046997.5,N
1505610735.7,286046996.1,N
1505610755.5,286046994.4,N
1505610775.4,286046996.3,N
1505610795.2,286046994.9,N
1505610815.0,286047000.0,N
1505610815.9,286047000.0,N
1505610835.8,286046997.3,N
1505610855.6,286046992.5,N
1505610875.4,286046989.6,P
1505610895.3,286046987.4,N
1505610915.1,286046982.5,P
1505610935.8,286046983.3,N
1505610955.7,286046982.7,N
1505610975.5,286046984.8,N
1505610995.3,286046984.5,N
1505611015.2,286046986.8,N
1505611035.9,286046988.7,N
1505611055.7,286046986.1,N
1505611075.6,286046985.1,P
1505611095.4,286047001.0,N
1505611115.2,286047005.6,N
1505611135.1,286047007.9,N
1505611136.0,286047007.9,N
1505611155.8,286047007.2,N
1505611175.6,286047007.6,N
1505611195.5,286047007.3,N
1505611215.3,286047008.0,N
1505611235.1,286047007.9,N
1505611255.8,286047008.9,N
1505611275.7,286047008.0,N
1505611295.5,286047009.3,N
1505611315.3,286047008.5,N
1505611335.2,286047007.7,N
1505611355.9,286047007.4,N
1505611375.7,286047008.3,N
1505611395.6,286047006.9,N
1505611415.4,286047008.3,N
1505611435.2,286047008.5,N
1505611455.1,286047008.6,N
1505611456.0,286047008.6,N
1505611475.8,286047006.6,N
1505611495.6,286047004.5,N
1505611515.4,286047004.8,N
1505611535.3,286047012.7,N
1505611555.1,286047014.5,N
1505611575.8,286047014.4,N
1505611595.7,286047015.6,N
1505611615.5,286047010.0,N
1505611635.3,286047013.3,N
1505611655.2,286047014.7,P
1505611675.0,286047008.8,N
1505611675.9,286047008.8,P
1505611695.8,286047009.2,P
1505611715.6,286046997.3,P
1505611735.4,286046996.6,N
1505611755.2,286046996.2,N
1505611775.1,286046994.0,N
1505611776.0,286046994.0,N
1505611795.8,286046992.1,N
1505611815.6,286046992.3,N
1505611835.5,286046993.8,N
1505611855.3,286046995.9,N
1505611875.1,286046993.7,N
1505611895.9,286046998.5,N
1505611915.7,286046996.8,N
1505611935.5,286046994.9,N
1505611955.4,286046995.1,N
1505611975.2,286046994.9,N
1505611995.0,286047002.5,N
1505611995.9,286047002.5,N
1505612015.8,286047000.0,N
1505612035.6,286047001.1,N
1505612055.4,286046997.0,N
1505612075.3,286046997.9,N
1505612095.1,286047000.5,N
1505612096.0,286047000.5,N
1505612115.8,286047000.3,N
1505612135.6,286047000.3,N
1505612155.5,286046999.3,N
1505612175.3,286046995.0,N
1505612195.1,286046994.7,N
1505612215.9,286046994.8,N
1505612235.7,286046992.5,N
1505612255.5,286046992.0,N
1505612275.4,286046994.8,N
1505612295.2,286046991.1,N
1505612315.0,286046988.6,P
1505612315.9,286046988.6,N
1505612335.8,286046991.2,N
1505612355.6,286046989.5,P
1505612375.4,286046998.2,N
1505612395.3,286047005.6,N
1505612415.1,286047005.8,N
1505612435.8,286047000.7,N
1505612455.7,286046999.8,N
1505612475.5,286046999.0,N
1505612495.3,286046994.0,N
1505612515.2,286046997.3,N
1505612535.9,286046995.1,N
1505612555.7,286046997.5,N
1505612575.6,286046994.1,N
1505612595.4,286046994.6,N
1505612615.2,286046992.4,N
1505612635.1,286046988.8,N
1505612636.0,286046988.8,N
1505612655.8,286046988.9,N
1505612675.6,286046991.7,N
1505612695.4,286046994.7,N
1505612715.3,286046994.5,N
1505612735.1,286046993.8,N
1505612755.8,286046999.5,N
1505612775.7,286046998.8,N
1505612795.5,286047001.3,N
1505612815.3,286047001.8,N
1505612835.2,286046998.3,N
1505612855.9,286046997.3,N
1505612875.7,286046999.4,N
1505612895.6,286047003.3,N
1505612915.4,286047002.3,N
1505612935.2,286047000.1,N
1505612955.0,286046998.3,N
1505612956.0,286046998.3,N
1505612975.8,286047000.6,N
1505612995.6,286046999.5,N
1505613015.4,286046997.1,N
1505613035.3,286046999.5,N
1505613055.1,286046999.5,N
1505613075.8,286046993.5,N
1505613095.7,286046994.8,N
1505613115.5,286046988.9,N
1505613135.3,286046993.2,N
1505613155.2,286046990.1,N
1505613175.9,286046990.3,N
1505613195.7,286046992.9,N
1505613215.6,286046991.2,N
1505613235.4,286046988.5,N
1505613255.2,286046989.0,N
1505613275.1,286046989.1,N
1505613276.0,286046989.1,N
1505613295.8,286046991.0,N
1505613315.6,286046991.7,N
1505613335.4,286046994.1,N
1505613355.3,286046995.6,N
1505613375.1,286046995.2,N
1505613395.8,286046994.9,N
1505613415.7,286046998.0,N
1505613435.5,286046995.9,N
1505613455.3,286047001.1,N
1505613475.2,286046999.1,N
1505613495.9,286046997.7,N
1505613515.7,286046999.4,N
1505613535.6,286046996.1,N
1505613555.4,286046996.3,N
1505613575.2,286046993.7,N
1505613595.1,286046994.5,N
1505613596.0,286046994.5,N
